« Back
NWS Peachtree City, Ga » Text Product » GA Regional Weather Roundup


Printer-friendly Version
Current Version              Previous Versions:   1  2  3  4  5  6  7  8  9  

Regional Weather Roundup

877
ASUS42 KFFC 241203
RWRGA
WEATHER ROUNDUP FOR GEORGIA
NATIONAL WEATHER SERVICE PEACHTREE CITY GA
800 AM EDT FRI OCT 24 2014

NOTE: "FAIR" INDICATES FEW OR NO CLOUDS BELOW 12,000 FEET WITH NO
SIGNIFICANT WEATHER AND/OR OBSTRUCTIONS TO VISIBILITY.

* = USE WITH CAUTION. THE STATIONS MARKED WITH AN ASTERISK MAY NOT
REPORT WEATHER SUCH AS PRECIPITATION, FOG, OR THUNDER AND ARE NOT
QUALITY CONTROLLED BY NWS.

THE REMARK "TC" DENOTES TEMPERATURE READING IN DEGREES CELSIUS.

GAZ001>058-241300-
NORTH GEORGIA

CITY           SKY/WX    TMP DP  RH WIND       PRES   REMARKS
ATLANTA        MOCLDY    52  44  74 NE5       30.06R
6HR MIN TEMP:  50; 6HR MAX TEMP:  52;

ATHENS         MOCLDY    44  42  93 CALM      30.07R
6HR MIN TEMP:  43; 6HR MAX TEMP:  49;

CHAMBLEE       MOCLDY    47  43  86 CALM      30.06S
6HR MIN TEMP:  43; 6HR MAX TEMP:  50;

PEACHTREE CITY PTCLDY    43  41  93 CALM      30.07S
6HR MIN TEMP:  43; 6HR MAX TEMP:  47;

ROME           CLOUDY    49  45  86 SW3       30.09R
6HR MIN TEMP:  48; 6HR MAX TEMP:  54;

WEST ATLANTA   MOCLDY    47  44  90 W3        30.07R
6HR MIN TEMP:  45; 6HR MAX TEMP:  51;

GAINESVILLE    MOCLDY    48  45  89 N3        30.08R
6HR MIN TEMP:  47; 6HR MAX TEMP:  54;

CARTERSVILLE   CLOUDY    47  43  86 CALM      30.09R
6HR MIN TEMP:  43; 6HR MAX TEMP:  48;



CITY           SKY/WX    TMP DP  RH WIND       PRES   REMARKS
DALTON*        MOCLDY    46  45  93 NW3       30.07F
LAWRENCEVILLE* CLEAR     48  39  71 CALM      30.06R
MARIETTA       MOCLDY    48  46  93 CALM      30.06R
KENNESAW*      MOCLDY    48  45  87 CALM      30.07F
$$

GAZ059>098-102>109-241300-
CENTRAL GEORGIA

CITY           SKY/WX    TMP DP  RH WIND       PRES   REMARKS
AUGUSTA-BUSH   CLOUDY    45  43  93 CALM      30.07R
6HR MIN TEMP:  42; 6HR MAX TEMP:  46;

AUGUSTA-DANIEL CLOUDY    51  46  83 CALM      30.07R
6HR MIN TEMP:  51; 6HR MAX TEMP:  58;

COLUMBUS       PTCLDY    48  44  86 CALM      30.06S
6HR MIN TEMP:  48; 6HR MAX TEMP:  55;

MACON          PTCLDY    43  43 100 CALM      30.06R
6HR MIN TEMP:  43; 6HR MAX TEMP:  47;

ROBINS AFB     CLOUDY    47  46  96 VRB1      30.05R


CITY           SKY/WX    TMP DP  RH WIND       PRES   REMARKS
LAGRANGE*      PTCLDY    47  46  97 CALM      30.07R
SYLVANIA*      MOCLDY    50  49  97 CALM      30.07R
MILLEDGEVILLE* PTCLDY    50  50 100 CALM      30.07R FOG
$$

GAZ099>101-110>166-241300-
SOUTH GEORGIA

CITY           SKY/WX    TMP DP  RH WIND       PRES   REMARKS
SAVANNAH       MOCLDY    50  45  83 CALM      30.05S
6HR MIN TEMP:  49; 6HR MAX TEMP:  52;

VALDOSTA       MOCLDY    46  42  86 CALM      30.03S
6HR MIN TEMP:  45; 6HR MAX TEMP:  48;

ALMA           CLOUDY    47  46  97 CALM      30.04R FOG
6HR MIN TEMP:  46; 6HR MAX TEMP:  49;

ST SIMONS      MOCLDY    52  49  89 NW6       30.03S
6HR MIN TEMP:  50; 6HR MAX TEMP:  52;

FT STEWART     MOCLDY    46  44  93 CALM      30.03S
ALBANY         MOCLDY    50  47  89 CALM      30.07S
HUNTER AFB     MOCLDY    50  47  90 CALM      30.02F
MOODY AFB      MOCLDY    47  44  91 N5        30.03S
BRUNSWICK      MOCLDY    50  46  87 CALM      30.04S


CITY           SKY/WX    TMP DP  RH WIND       PRES   REMARKS
BAINBRIDGE*    CLOUDY    54  52  94 CALM      30.06R
MOULTRIE*      MOCLDY    50  50 100 CALM      30.06R
VIDALIA*       MOCLDY    50  46  87 CALM      30.06R
WAYCROSS*      CLOUDY    50  48  94 CALM      30.04S
DOUGLAS*       CLOUDY    50  46  87 W3        30.07R
$$



USA.gov is the U.S. government's official web portal to all federal, state and local government web resources and services.